TimeCST,TemperatureF,Dew PointF,Humidity,Sea Level PressureIn,VisibilityMPH,Wind Direction,Wind SpeedMPH,Gust SpeedMPH,PrecipitationIn,Events,Conditions,WindDirDegrees,DateUTC
12:56 AM,12.9,5.0,71,30.34,10.0,NW,5.8,-,N/A,,Partly Cloudy,310,2013-01-17 06:56:00
1:56 AM,15.1,6.1,68,30.36,10.0,Calm,Calm,-,N/A,,Mostly Cloudy,0,2013-01-17 07:56:00
2:56 AM,16.0,3.9,59,30.38,10.0,NNW,4.6,-,N/A,,Overcast,340,2013-01-17 08:56:00
3:56 AM,17.1,8.1,68,30.37,10.0,Calm,Calm,-,N/A,,Overcast,0,2013-01-17 09:56:00
4:56 AM,17.1,7.0,65,30.40,10.0,ENE,3.5,-,N/A,,Overcast,60,2013-01-17 10:56:00
5:56 AM,17.1,7.0,65,30.41,10.0,Calm,Calm,-,N/A,,Overcast,0,2013-01-17 11:56:00
6:56 AM,18.0,8.1,65,30.42,10.0,Calm,Calm,-,N/A,,Overcast,0,2013-01-17 12:56:00
7:51 AM,19.4,6.8,58,30.36,10.0,Calm,Calm,-,N/A,,Overcast,0,2013-01-17 13:51:00
7:56 AM,19.9,8.1,60,30.43,10.0,Calm,Calm,-,N/A,,Overcast,0,2013-01-17 13:56:00
8:56 AM,19.9,10.0,65,30.44,10.0,SSW,3.5,-,N/A,,Scattered Clouds,210,2013-01-17 14:56:00
9:56 AM,23.0,15.1,72,30.46,10.0,SW,5.8,-,N/A,,Partly Cloudy,220,2013-01-17 15:56:00
10:56 AM,25.0,19.9,81,30.46,10.0,WSW,5.8,-,N/A,,Mostly Cloudy,240,2013-01-17 16:56:00
11:56 AM,28.9,23.0,78,30.43,10.0,WSW,8.1,-,N/A,,Mostly Cloudy,240,2013-01-17 17:56:00
12:56 PM,28.9,25.0,85,30.44,10.0,SW,5.8,-,N/A,,Overcast,220,2013-01-17 18:56:00
1:13 PM,28.4,24.8,86,30.35,10.0,Variable,4.6,-,N/A,,Mostly Cloudy,0,2013-01-17 19:13:00
1:43 PM,30.2,26.6,86,30.35,10.0,SW,4.6,-,N/A,,Mostly Cloudy,220,2013-01-17 19:43:00
1:56 PM,30.0,26.1,85,30.41,10.0,SSW,4.6,-,N/A,,Mostly Cloudy,210,2013-01-17 19:56:00
2:33 PM,30.2,26.6,86,30.33,10.0,SW,3.5,-,N/A,,Mostly Cloudy,230,2013-01-17 20:33:00
2:56 PM,30.0,27.0,88,30.40,10.0,South,4.6,-,N/A,,Mostly Cloudy,180,2013-01-17 20:56:00
3:11 PM,30.2,26.6,86,30.32,10.0,South,4.6,-,N/A,,Mostly Cloudy,190,2013-01-17 21:11:00
3:56 PM,32.0,27.0,82,30.40,10.0,Calm,Calm,-,N/A,,Overcast,0,2013-01-17 21:56:00
4:03 PM,32.0,26.6,80,30.33,10.0,Calm,Calm,-,N/A,,Overcast,0,2013-01-17 22:03:00
4:56 PM,32.0,27.0,82,30.40,10.0,East,6.9,-,N/A,,Overcast,80,2013-01-17 22:56:00
5:56 PM,30.9,26.1,82,30.39,10.0,SE,5.8,-,N/A,,Overcast,140,2013-01-17 23:56:00
6:16 PM,30.2,26.6,86,30.31,10.0,SE,5.8,-,N/A,,Scattered Clouds,140,2013-01-18 00:16:00
6:56 PM,28.9,25.0,85,30.38,10.0,SE,5.8,-,N/A,,Mostly Cloudy,140,2013-01-18 00:56:00
7:09 PM,30.2,26.6,86,30.31,10.0,SE,5.8,-,N/A,,Mostly Cloudy,140,2013-01-18 01:09:00
7:31 PM,28.4,24.8,86,30.30,10.0,SE,8.1,-,N/A,,Mostly Cloudy,130,2013-01-18 01:31:00
7:56 PM,28.9,25.0,85,30.35,10.0,SSE,6.9,-,N/A,,Clear,150,2013-01-18 01:56:00
8:56 PM,28.9,26.1,89,30.32,10.0,SSE,9.2,-,N/A,,Scattered Clouds,150,2013-01-18 02:56:00
9:56 PM,28.0,26.1,92,30.27,10.0,South,9.2,-,N/A,,Overcast,170,2013-01-18 03:56:00
10:56 PM,30.0,27.0,88,30.21,10.0,South,12.7,-,N/A,,Clear,190,2013-01-18 04:56:00
11:56 PM,30.9,27.0,85,30.17,10.0,South,17.3,-,N/A,,Clear,190,2013-01-18 05:56:00